XTAR-EUR (28542 NORAD) Tracking and Keplerian Element Data

This shows tracking and keplerian element data for the satellite.

Feedback or suggestion? Click here.




ElementValue
Catalog28542
NameXTAR-EUR
Epoch Orbit7318
Epoch Day33.78013172
Epoch Year2025
RAAN82.9668
Inclination3.0441
Eccentricity0.0005953
Argument of Perigee223.8757
Mean Anonmoly136.1984
Mean Motion1.00272668
Decay Rate1.54E-06
L11 28542U 05005A 25033.78013172 .00000154 00000+0 00000+0 0 9991
L22 28542 3.0441 82.9668 0005953 223.8757 136.1984 1.00272668 73183



Live tracking and technical data element details for XTAR-EUR (NORAD 28542). XTAR-EUR can be tracked NOW for your location showing map with azimuth and elevation plus other details from your city location.







IsCatalogInMostPopularTable: catalog: 28542, numindb: 446
Update: records affected: 1



GetName: 28542 XTAR-EUR

Hit Count: updated at: Fri, 16 May 2025 11:10:23 GMT